Change the Weather History Date:

Thursday, April 18, 2013

  Actual Average (LFTH) Record (LFTH)
Temperature  
Mean Temperature 65 °F -  
Max Temperature 82 °F 66 °F 71 °F (2014)
Min Temperature 48 °F 51 °F 39 °F (2001)
Growing Degree Days 15 (Base 50)    
Moisture  
Dew Point 49 °F    
Average Humidity 68    
Maximum Humidity 88    
Minimum Humidity 32    
Precipitation  
Precipitation 0.00 in - - ()
Sea Level Pressure  
Sea Level Pressure 30.12 in    
Wind  
Wind Speed 2 mph ()    
Max Wind Speed 12 mph    
Max Gust Speed -    
Visibility 6.2 miles    
Events Fog    
Averages and records for this station are not official NWS values.
T = Trace of Precipitation, MM = Missing Value Source: Averaged Metar Reports

Daily Weather History Graph

Daily Weather History Graph

Search for Another Location

Airport or City:

Trip Planner

Search our weather history database for the weather conditions in past years. The results will help you decide how hot, cold, wet, or windy it might be!

Date:

Astronomy

Apr. 18, 2013 Rise Set
Actual Time 6:47 AM CEST 8:21 PM CEST
Civil Twilight 6:17 AM CEST 8:51 PM CEST
Nautical Twilight 5:41 AM CEST 9:27 PM CEST
Astronomical Twilight 5:02 AM CEST 10:06 PM CEST
Moon 12:41 PM CEST (4/18) 2:28 AM CEST (4/18)
Length of Visible Light 14h 33m
Length of Day
13h 33m
Waxing Crescent, 49% of the Moon is Illuminated
Apr 18
Waxing Crescent
Apr 18
First Quarter
Apr 25
Full
May 2
Last Quarter
May 10
New

Hourly Weather History & Observations

Time (CEST) Temp. Dew Point Humidity Pressure Visibility Wind Dir Wind Speed Gust Speed Precip Events Conditions
12:00 AM 55.4 °F 48.2 °F 77% 30.18 in 6.2 mi Calm Calm - N/A   Unknown
12:30 AM 55.4 °F 50.0 °F 82% 30.18 in 6.2 mi WSW 1.2 mph - N/A   Unknown
1:00 AM 55.4 °F 48.2 °F 77% 30.18 in 6.2 mi West 2.3 mph - N/A   Unknown
1:30 AM 55.4 °F 48.2 °F 77% 30.18 in 6.2 mi Calm Calm - N/A   Unknown
2:00 AM 53.6 °F 48.2 °F 82% 30.18 in 6.2 mi Calm Calm - N/A   Unknown
2:30 AM 51.8 °F 48.2 °F 88% 30.18 in 6.2 mi Calm Calm - N/A   Unknown
3:00 AM 51.8 °F 46.4 °F 82% 30.18 in 6.2 mi Calm Calm - N/A   Unknown
3:30 AM 51.8 °F 48.2 °F 88% 30.18 in 6.2 mi Calm Calm - N/A   Unknown
4:00 AM 50.0 °F 46.4 °F 87% 30.18 in 6.2 mi Calm Calm - N/A   Unknown
4:30 AM 50.0 °F 46.4 °F 87% 30.15 in 6.2 mi WNW 2.3 mph - N/A   Unknown
5:00 AM 50.0 °F 46.4 °F 87% 30.15 in 6.2 mi Calm Calm - N/A   Unknown
5:30 AM 50.0 °F 46.4 °F 87% 30.15 in 6.2 mi Calm Calm - N/A   Unknown
6:00 AM 48.2 °F 44.6 °F 87% 30.15 in 6.2 mi Variable 1.2 mph - N/A   Unknown
6:30 AM 48.2 °F 44.6 °F 87% 30.15 in 6.2 mi Calm Calm - N/A   Unknown
7:00 AM 48.2 °F 44.6 °F 87% 30.15 in 6.2 mi Calm Calm - N/A Fog Shallow Fog
8:00 AM 50.0 °F 46.4 °F 87% 30.15 in 6.2 mi Calm Calm - N/A Fog Shallow Fog
9:00 AM 57.2 °F 48.2 °F 72% 30.15 in - Variable 2.3 mph - N/A   Clear
10:00 AM 64.4 °F 51.8 °F 64% 30.15 in - Variable 1.2 mph - N/A   Clear
11:00 AM 71.6 °F 53.6 °F 53% 30.12 in - Variable 2.3 mph - N/A   Clear
12:00 PM 78.8 °F 51.8 °F 39% 30.12 in 6.2 mi South 4.6 mph - N/A   Partly Cloudy
1:00 PM 80.6 °F 51.8 °F 37% 30.09 in 6.2 mi SW 5.8 mph - N/A   Partly Cloudy
2:00 PM 82.4 °F 51.8 °F 35% 30.09 in 6.2 mi SW 6.9 mph - N/A   Partly Cloudy
3:09 PM 82.4 °F 51.8 °F 35% 30.06 in 6.2 mi WSW 11.5 mph - N/A   Partly Cloudy
4:00 PM 80.6 °F 48.2 °F 32% 30.04 in 6.2 mi WSW 11.5 mph - N/A   Partly Cloudy
5:00 PM 80.6 °F 48.2 °F 32% 30.04 in 6.2 mi SW 10.4 mph - N/A   Partly Cloudy
6:00 PM 78.8 °F 48.2 °F 34% 30.01 in - WSW 11.5 mph - N/A   Clear
7:00 PM 77.0 °F 51.8 °F 41% 30.04 in - WSW 6.9 mph - N/A   Clear
8:30 PM 64.4 °F 51.8 °F 64% 30.04 in 6.2 mi NNE 4.6 mph - N/A   Unknown
9:00 PM 64.4 °F 51.8 °F 64% 30.06 in 6.2 mi Calm Calm - N/A   Unknown
9:30 PM 62.6 °F 51.8 °F 68% 30.06 in 6.2 mi Variable 2.3 mph - N/A   Unknown
10:00 PM 60.8 °F 51.8 °F 72% 30.06 in 6.2 mi Variable 1.2 mph - N/A   Unknown
10:30 PM 60.8 °F 51.8 °F 72% 30.06 in 6.2 mi Calm Calm - N/A   Unknown
11:00 PM 59.0 °F 51.8 °F 77% 30.06 in 6.2 mi Calm Calm - N/A   Unknown
11:30 PM 57.2 °F 51.8 °F 82% 30.06 in 6.2 mi Calm Calm - N/A   Unknown